Weather observations for the past three days for
Pierce County-Thun Field
Imperial (Metric)
Date Time (pdt) Wind (mph) Vis. (mi.) Weather Sky Cond. Temperature (ºF) Relative Humidity Wind Chill (°F) Heat Index (°F) Pressure Precipitation (in)
Air Dwpt 6 hour altimeter (in) sea level (mb) 1 hr 3 hr 6 hr
Max. Min.
12 09:35 Calm 10.00 Fair CLR 66.2 55.4 68% 30.12 0.0
12 09:15 Calm 10.00 Fair CLR 64.4 55.4 73% 30.13 0.0
12 08:55 Calm 10.00 Fair CLR 64.4 55.4 73% 30.13 0.0
12 08:35 Calm 10.00 Fair CLR 62.6 55.4 77% 30.13 0.0
12 08:15 Calm 10.00 Fair CLR 62.6 55.4 77% 30.13 0.0
12 07:55 Calm 9.00 Fair CLR 60.8 55.4 83% 30.13 0.0
12 07:35 Calm 10.00 Fair CLR 59 55.4 88% 30.13 0.0
12 07:15 Calm 9.00 Fair CLR 57.2 55.4 94% 30.13 0.0
12 06:55 Calm 9.00 Light Drizzle CLR 53.6 53.6 100% 30.13 0.0
12 06:35 Calm 9.00 Light Drizzle CLR 53.6 53.6 100% 30.13 0.0
12 06:15 Calm 9.00 Light Drizzle CLR 51.8 51.8 100% 30.13 0.0
12 05:55 Calm 9.00 Light Drizzle CLR 51.8 51.8 100% 30.12 0.0
12 05:35 Calm 10.00 Light Drizzle CLR 51.8 51.8 100% 30.12 0.0
12 05:15 Calm 10.00 Light Drizzle CLR 51.8 51.8 100% 30.12 0.0
12 04:55 Calm 10.00 Light Drizzle CLR 53.6 53.6 100% 30.12 0.0
12 04:35 Calm 10.00 Light Drizzle CLR 53.6 53.6 100% 30.11 0.0
12 04:15 Calm 10.00 Light Drizzle CLR 53.6 53.6 100% 30.1 0.0
12 03:55 Calm 10.00 Fair CLR 53.6 53.6 100% 30.1 0.0
12 03:35 Calm 10.00 Fair CLR 53.6 53.6 100% 30.1 0.0
12 03:15 Calm 10.00 Fair CLR 53.6 53.6 100% 30.1 0.0
12 02:55 Calm 10.00 Fair CLR 55.4 55.4 100% 30.1 0.0
12 02:35 Calm 10.00 Fair CLR 55.4 55.4 100% 30.1 0.0
12 02:15 Calm 10.00 Fair CLR 55.4 55.4 100% 30.1 0.0
12 01:55 Calm 10.00 Fair CLR 57.2 55.4 94% 30.1 0.0
12 01:35 Calm 10.00 Fair CLR 57.2 55.4 94% 30.1 0.0
12 01:15 Calm 10.00 Fair CLR 57.2 55.4 94% 30.1 0.0
12 00:55 Calm 10.00 Fair CLR 59 55.4 88% 30.1 0.0
12 00:35 Calm 10.00 Fair CLR 59 57.2 94% 30.1 0.0
12 00:15 Calm 10.00 Fair CLR 60.8 55.4 83% 30.1 0.0
11 23:55 Calm 10.00 Fair CLR 60.8 55.4 83% 30.1 0.0
11 23:35 Calm 10.00 Fair CLR 60.8 55.4 83% 30.1 0.0
11 23:15 Calm 10.00 Fair CLR 60.8 55.4 83% 30.1 0.0
11 22:55 Calm 10.00 Fair CLR 62.6 55.4 77% 30.09 0.0
11 22:35 Calm 10.00 Fair CLR 64.4 53.6 68% 30.09 0.0
11 22:15 Calm 10.00 Fair CLR 64.4 53.6 68% 30.09 0.0
11 21:55 Calm 10.00 Fair CLR 66.2 53.6 64% 30.09 0.0
11 21:35 Calm 10.00 Fair CLR 68 55.4 64% 30.08 0.0
11 21:15 Calm 10.00 Fair CLR 69.8 53.6 57% 30.08 0.0
11 20:55 Calm 10.00 Fair CLR 71.6 51.8 50% 30.08 0.0
11 20:35 Calm 10.00 Fair CLR 75.2 50 41% 78 30.07 0.0
11 20:15 Calm 10.00 Fair CLR 77 48.2 36% 78 30.08 0.0
11 19:55 Calm 10.00 Fair CLR 78.8 50 37% 79 30.08 0.0
11 19:35 Calm 10.00 Fair CLR 78.8 50 37% 79 30.08 0.0
11 19:15 Vrbl 6 10.00 Fair CLR 80.6 50 34% 80 30.08 0.0
11 18:55 Vrbl 5 G 12 10.00 Fair CLR 82.4 50 32% 81 30.08 0.0
11 18:35 Calm 10.00 Fair CLR 82.4 50 32% 81 30.08 0.0
11 18:15 Vrbl 5 10.00 Fair CLR 82.4 50 32% 81 30.08 0.0
11 17:55 Vrbl 3 G 12 10.00 Fair CLR 84.2 50 31% 82 30.08 0.0
11 17:35 Calm 10.00 Fair CLR 84.2 48.2 29% 82 30.08 0.0
11 17:15 Calm 10.00 Fair CLR 84.2 48.2 29% 82 30.09 0.0
11 16:55 Vrbl 5 G 12 10.00 Fair CLR 84.2 48.2 29% 82 30.09 0.0
11 16:35 Vrbl 5 10.00 Fair CLR 82.4 50 32% 81 30.1 0.0
11 16:15 Vrbl 7 10.00 Fair CLR 84.2 50 31% 82 30.1 0.0
11 15:55 Calm 10.00 Fair CLR 82.4 50 32% 81 30.11 0.0
11 15:35 Calm 10.00 Fair CLR 82.4 50 32% 81 30.11 0.0
11 15:15 Calm 9.00 Fair CLR 82.4 50 32% 81 30.11 0.0
11 14:55 Vrbl 6 10.00 Fair CLR 82.4 51.8 35% 81 30.12 0.0
11 14:35 Vrbl 7 10.00 Fair CLR 80.6 51.8 37% 80 30.12 0.0
11 14:15 Vrbl 5 G 12 10.00 Fair CLR 80.6 51.8 37% 80 30.12 0.0
11 13:55 Vrbl 5 G 13 10.00 Fair CLR 78.8 51.8 39% 79 30.13 0.0
11 13:35 Vrbl 6 10.00 Fair CLR 78.8 51.8 39% 79 30.14 0.0
11 13:15 Vrbl 6 G 13 10.00 Fair CLR 78.8 50 37% 79 30.14 0.0
11 12:55 Calm 10.00 Fair CLR 78.8 50 37% 79 30.14 0.0
11 12:35 Calm 10.00 Fair CLR 78.8 51.8 39% 79 30.15 0.0
11 11:55 Calm 10.00 Fair CLR 77 53.6 44% 78 30.15 0.0
11 11:35 Calm 9.00 Fair CLR 77 53.6 44% 78 30.16 0.0
11 11:15 Calm 10.00 Fair CLR 73.4 55.4 53% 30.16 0.0
11 10:55 Calm 9.00 Fair CLR 73.4 53.6 50% 30.16 0.0
11 10:35 Calm 10.00 Fair CLR 71.6 55.4 57% 30.16 0.0
11 09:55 Calm 10.00 Fair CLR 69.8 55.4 60% 30.17 0.0
11 09:35 Calm 10.00 Fair CLR 68 55.4 64% 30.17 0.0
11 09:15 Calm 10.00 Fair CLR 66.2 55.4 68% 30.17 0.0
11 08:55 Calm 10.00 Fair CLR 66.2 55.4 68% 30.16 0.0
11 08:35 Calm 10.00 Fair CLR 64.4 55.4 73% 30.17 0.0
11 08:15 Calm 10.00 Fair CLR 64.4 55.4 73% 30.16 0.0
11 07:55 Calm 10.00 Fair CLR 62.6 55.4 77% 30.16 0.0
11 07:35 Calm 10.00 Fair CLR 62.6 55.4 77% 30.15 0.0
11 07:15 Calm 10.00 Fair CLR 60.8 55.4 83% 30.15 0.0
11 06:55 Calm 10.00 Fair CLR 57.2 55.4 94% 30.15 0.0
11 06:35 Calm 10.00 Fair CLR 55.4 55.4 100% 30.15 0.0
11 06:15 Calm 10.00 Fair CLR 55.4 55.4 100% 30.14 0.0
11 05:55 Calm 10.00 Fair CLR 55.4 53.6 94% 30.13 0.0
11 05:35 Calm 10.00 Fair CLR 55.4 55.4 100% 30.13 0.0
11 05:15 Calm 10.00 Fair CLR 55.4 55.4 100% 30.13 0.0
11 04:55 Calm 10.00 Fair CLR 55.4 55.4 100% 30.13 0.0
11 04:35 Calm 10.00 Fair CLR 55.4 55.4 100% 30.12 0.0
11 04:15 Calm 10.00 Fair CLR 57.2 57.2 100% 30.12 0.0
11 03:55 Calm 10.00 Fair CLR 57.2 57.2 100% 30.12 0.0
11 03:35 Calm 10.00 Fair CLR 57.2 57.2 100% 30.12 0.0
11 03:15 Calm 10.00 Fair CLR 57.2 57.2 100% 30.11 0.0
11 02:55 Calm 10.00 Fair CLR 59 57.2 94% 30.11 0.0
11 02:35 Calm 10.00 Fair CLR 59 57.2 94% 30.11 0.0
11 02:15 Calm 10.00 Light Drizzle CLR 59 57.2 94% 30.11 0.0
11 01:55 Calm 10.00 Fair CLR 59 57.2 94% 30.11 0.0
11 01:35 Calm 10.00 Fair CLR 60.8 57.2 88% 30.11 0.0
11 01:15 Calm 10.00 Fair CLR 60.8 57.2 88% 30.1 0.0
11 00:55 Calm 10.00 Fair CLR 60.8 57.2 88% 30.1 0.0
11 00:35 Calm 10.00 Fair CLR 62.6 57.2 83% 30.1 0.0
11 00:15 Calm 10.00 Fair CLR 62.6 57.2 83% 30.1 0.0
10 23:35 Calm 10.00 Fair CLR 66.2 59 78% 30.09 0.0
10 23:15 Calm 10.00 A Few Clouds FEW043 68 57.2 69% 30.09 0.0
10 22:35 Calm 0.00 A Few Clouds FEW043 FEW060 69.8 57.2 64% 30.08 0.0
10 22:15 Calm 10.00 Fair CLR 69.8 59 69% 30.08 0.0
10 21:55 Calm 10.00 Fair CLR 69.8 57.2 64% 30.08 0.0
10 21:35 Calm 10.00 Fair CLR 71.6 59 65% 30.07 0.0
10 21:15 Calm 10.00 Fair CLR 73.4 57.2 57% 30.06 0.0
10 20:55 Calm 10.00 Fair CLR 73.4 53.6 50% 30.05 0.0
10 20:35 Calm 10.00 Fair CLR 77 50 39% 78 30.05 0.0
10 20:15 Calm 10.00 Fair CLR 80.6 48.2 32% 80 30.05 0.0
10 19:55 Calm 10.00 Fair CLR 84.2 44.6 25% 82 30.04 0.0
10 19:35 Calm 10.00 Fair CLR 84.2 46.4 27% 82 30.04 0.0
10 19:15 Calm 10.00 Fair CLR 84.2 46.4 27% 82 30.04 0.0
10 18:55 Vrbl 3 10.00 Fair CLR 86 46.4 25% 83 30.04 0.0
10 18:35 Calm 10.00 Fair CLR 87.8 46.4 24% 85 30.04 0.0
10 18:15 Calm 9.00 Fair CLR 87.8 46.4 24% 85 30.04 0.0
10 17:55 Calm 8.00 Fair CLR 87.8 48.2 25% 85 30.04 0.0
10 17:35 Calm 9.00 Fair CLR 87.8 48.2 25% 85 30.04 0.0
10 17:15 Calm 10.00 Fair CLR 87.8 48.2 25% 85 30.04 0.0
10 16:55 Calm 10.00 Fair CLR 87.8 50 27% 85 30.04 0.0
10 16:35 Calm 10.00 Fair CLR 87.8 50 27% 85 30.04 0.0
10 16:15 W 5 10.00 Fair CLR 87.8 51.8 29% 85 30.05 0.0
10 15:55 Vrbl 5 10.00 Fair CLR 87.8 51.8 29% 85 30.05 0.0
10 15:35 Vrbl 3 10.00 Fair CLR 87.8 53.6 31% 86 30.05 0.0
10 15:15 Calm 10.00 Fair CLR 87.8 50 27% 85 30.05 0.0
10 14:55 W 5 10.00 Fair CLR 87.8 51.8 29% 85 30.05 0.0
10 14:35 Calm 10.00 Fair CLR 87.8 51.8 29% 85 30.05 0.0
10 14:15 Vrbl 3 10.00 Fair CLR 86 51.8 31% 84 30.05 0.0
10 13:55 Calm 10.00 Fair CLR 86 50 29% 84 30.05 0.0
10 13:35 Calm 10.00 Fair CLR 84.2 50 31% 82 30.05 0.0
10 13:15 Vrbl 3 10.00 Fair CLR 84.2 48.2 29% 82 30.05 0.0
10 12:55 Calm 10.00 Fair CLR 84.2 46.4 27% 82 30.05 0.0
10 12:35 Calm 10.00 Fair CLR 84.2 46.4 27% 82 30.05 0.0
10 12:15 Calm 10.00 Fair CLR 82.4 46.4 28% 81 30.05 0.0
10 11:55 Vrbl 3 10.00 Fair CLR 82.4 46.4 28% 81 30.05 0.0
10 11:35 Vrbl 6 10.00 Fair CLR 80.6 46.4 30% 80 30.05 0.0
10 11:15 Calm 0.00 Fair CLR 78.8 46.4 32% 79 30.05 0.0
10 10:55 SW 3 10.00 Fair CLR 78.8 46.4 32% 79 30.04 0.0
10 10:35 Calm 10.00 Fair CLR 78.8 48.2 34% 79 30.04 0.0
10 10:15 Calm 10.00 Fair CLR 75.2 48.2 39% 77 30.04 0.0
10 09:55 W 5 10.00 Fair CLR 73.4 48.2 41% 30.04 0.0
10 09:35 Calm 10.00 Fair CLR 73.4 48.2 41% 30.04 0.0
10 09:15 Calm 10.00 Fair CLR 71.6 48.2 44% 30.03 0.0
10 08:55 Calm 10.00 Fair CLR 71.6 48.2 44% 30.03 0.0
10 08:35 Calm 10.00 Fair CLR 69.8 50 50% 30.03 0.0
10 08:15 Calm 10.00 Fair CLR 69.8 48.2 46% 30.03 0.0
10 07:55 Calm 10.00 Fair CLR 68 48.2 49% 30.03 0.0
10 07:35 Calm 10.00 Fair CLR 66.2 50 56% 30.02 0.0
10 07:15 Calm 10.00 Fair CLR 64.4 51.8 64% 30.01 0.0
10 06:55 Calm 10.00 Fair CLR 60.8 51.8 72% 30.01 0.0
10 06:35 Calm 10.00 Fair CLR 59 51.8 77% 30.01 0.0
10 06:15 Calm 10.00 Fair CLR 59 51.8 77% 30 0.0
10 05:55 Calm 10.00 Fair CLR 59 53.6 82% 30 0.0
10 05:35 Calm 10.00 Fair CLR 59 55.4 88% 29.99 0.0
10 05:15 Calm 10.00 Fair CLR 60.8 55.4 83% 29.98 0.0
10 04:55 Calm 10.00 Partly Cloudy SCT060 60.8 55.4 83% 29.97 0.0
10 04:35 Calm 10.00 Overcast OVC060 60.8 55.4 83% 29.96 0.0
10 04:15 Calm 10.00 Overcast BKN050 OVC060 60.8 53.6 77% 29.95 0.0
10 03:55 Calm 10.00 Overcast OVC050 62.6 55.4 77% 29.95 0.0
10 03:35 Calm 10.00 Overcast OVC050 62.6 55.4 77% 29.94 0.0
10 03:15 Calm 10.00 Overcast OVC050 62.6 53.6 73% 29.93 0.0
10 02:55 Calm 10.00 Overcast OVC060 62.6 55.4 77% 29.93 0.0
10 02:35 Calm 10.00 Overcast FEW042 SCT050 OVC060 62.6 55.4 77% 29.92 0.0
10 02:15 Calm 10.00 Overcast FEW042 SCT050 OVC060 62.6 55.4 77% 29.92 0.0
10 01:55 Calm 10.00 Mostly Cloudy FEW050 BKN060 64.4 55.4 73% 29.92 0.0
10 01:35 Calm 10.00 Partly Cloudy SCT055 66.2 55.4 68% 29.92 0.0
10 01:15 Calm 10.00 A Few Clouds FEW060 66.2 53.6 64% 29.92 0.0
10 00:55 Calm 10.00 A Few Clouds FEW055 66.2 55.4 68% 29.92 0.0
10 00:35 Calm 10.00 Fair CLR 66.2 55.4 68% 29.91 0.0
10 00:15 Calm 10.00 Fair CLR 68 55.4 64% 29.91 0.0
09 23:55 Calm 10.00 Fair CLR 69.8 51.8 53% 29.9 0.0
09 23:35 Calm 10.00 Fair CLR 69.8 51.8 53% 29.9 0.0
09 23:15 Calm 10.00 A Few Clouds FEW045 69.8 53.6 57% 29.89 0.0
09 22:55 Calm 10.00 Partly Cloudy SCT046 SCT055 71.6 53.6 53% 29.89 0.0
09 22:35 Calm 10.00 Partly Cloudy FEW047 SCT055 71.6 51.8 50% 29.88 0.0
09 22:15 Calm 10.00 A Few Clouds FEW043 73.4 51.8 47% 29.88 0.0
09 21:55 Calm 0.00 A Few Clouds FEW043 75.2 50 41% 78 29.87 0.0
09 21:35 Calm 10.00 Fair CLR 75.2 51.8 44% 78 29.86 0.0
09 21:15 Calm 10.00 Fair CLR 78.8 50 37% 79 29.85 0.0
09 20:55 Calm 10.00 Fair CLR 80.6 50 34% 80 29.85 0.0
09 20:35 Calm 10.00 Fair CLR 84.2 50 31% 82 29.85 0.0
09 20:15 Calm 10.00 Fair CLR 86 48.2 27% 83 29.84 0.0
09 19:55 Calm 10.00 Fair CLR 89.6 50 26% 87 29.84 0.0
09 19:35 Calm 10.00 Fair CLR 91.4 48.2 23% 88 29.84 0.0
09 19:15 Calm 10.00 Fair CLR 95 44.6 18% 91 29.84 0.0
09 18:55 Calm 10.00 Fair CLR 96.8 44.6 17% 93 29.84 0.0
09 18:35 Calm 10.00 Fair CLR 96.8 44.6 17% 93 29.84 0.0
09 18:15 Calm 10.00 Fair CLR 98.6 44.6 16% 95 29.84 0.0
09 17:55 Calm 10.00 Fair CLR 98.6 46.4 17% 95 29.84 0.0
09 17:35 Calm 10.00 Fair CLR 98.6 46.4 17% 95 29.85 0.0
09 17:15 Calm 10.00 Fair CLR 96.8 46.4 18% 93 29.85 0.0
09 16:55 Calm 10.00 Fair CLR 98.6 46.4 17% 95 29.86 0.0
09 16:35 Calm 10.00 Fair CLR 98.6 46.4 17% 95 29.86 0.0
09 16:15 Vrbl 3 10.00 Fair CLR 96.8 46.4 18% 93 29.87 0.0
09 15:55 Calm 10.00 Fair CLR 96.8 44.6 17% 93 29.87 0.0
09 15:35 Vrbl 5 10.00 Fair CLR 96.8 44.6 17% 93 29.88 0.0
09 15:15 Calm 10.00 Fair CLR 96.8 44.6 17% 93 29.88 0.0
09 14:55 Vrbl 5 10.00 Fair CLR 96.8 44.6 17% 93 29.88 0.0
09 14:35 Vrbl 6 G 13 10.00 Fair CLR 95 46.4 19% 91 29.88 0.0
09 14:15 Calm 10.00 Fair CLR 95 44.6 18% 91 29.89 0.0
09 13:55 Vrbl 6 10.00 Fair CLR 93.2 44.6 19% 89 29.89 0.0
09 13:35 Calm 10.00 Fair CLR 93.2 48.2 21% 90 29.89 0.0
09 13:15 Calm 10.00 Fair CLR 91.4 48.2 23% 88 29.89 0.0
09 12:55 Vrbl 5 10.00 Fair CLR 91.4 48.2 23% 88 29.9 0.0
09 12:35 Calm 10.00 Fair CLR 91.4 50 24% 88 29.9 0.0
09 12:15 Calm 10.00 Fair CLR 89.6 50 26% 87 29.9 0.0
09 11:55 Calm 10.00 Fair CLR 89.6 48.2 24% 86 29.9 0.0
09 11:35 Calm 10.00 Fair CLR 87.8 48.2 25% 85 29.9 0.0
09 11:15 Calm 10.00 Fair CLR 87.8 50 27% 85 29.9 0.0
09 10:55 Vrbl 6 10.00 Fair CLR 87.8 50 27% 85 29.9 0.0
09 10:35 NW 6 10.00 Fair CLR 87.8 48.2 25% 85 29.9 0.0
09 10:15 Calm 10.00 Fair CLR 86 51.8 31% 84 29.9 0.0
09 09:55 Calm 10.00 Fair CLR 84.2 51.8 33% 82 29.9 0.0
Date Time (pdt) Wind (mph) Vis. (mi.) Weather Sky Cond. Air Dwpt Max. Min. Relative Humidity Wind Chill (°F) Heat Index (°F) altimeter (in) sea level (mb) 1 hr 3 hr 6 hr
6 hour
Temperature (ºF) Pressure Precipitation (in)